Temp
15 12 11 13 14 17 17 18 16 14 14 12 12 11 9 10 9 8 8 8 9 9 9 10 11 12 12 12 12 12 12 12 12 12 13 13 13 12 13 12 12 13 13 13
12 10 13 16 16 18 18 17 14 14 13 11 10 9 9 9 9 9 8 8 8 9 9 10 11 11 12 12 12 12 12 12 12 12 12 12 11 11 10 11 11 11 11 12
10 12 13 15 16 16 16 17 13 14 11 11 12 10 10 10 10 9 8 9 8 9 9 10 11 11 11 11 11 11 11 11 11 11 11 10 10 10 10 11 11 11 11 11
11 12 14 14 14 15 15 16 16 13 13 9 12 9 9 10 9 9 9 8 8 9 9 10 10 10 10 10 10 10 10 10 10 10 10 11 11 11 10 9 9 9 10 10
11 12 12 12 14 15 16 17 16 15 13 13 13 10 9 10 9 9 9 8 8 9 9 9 9 9 9 9 9 9 10 10 9 9 9 10 10 9 9 9 9 9 9 9
12 14 13 13 15 16 15 15 14 13 12 11 14 11 8 10 11 11 10 8 8 9 9 9 9 9 8 8 8 8 8 8 8 8 8 9 9 8 9 9 9 9 8 8
13 13 14 15 15 15 16 13 10 11 10 11 13 11 16 11 13 11 10 9 9 9 9 9 9 8 8 8 7 7 7 7 7 8 8 8 8 8 8 8 8 8 8 8
10 11 13 14 14 13 15 12 10 13 11 11 12 11 12 12 13 12 11 9 9 9 9 9 9 9 8 8 8 7 7 7 7 7 7 6 6 7 7 7 6 7 7 7
10 12 14 14 15 15 14 13 16 12 13 13 13 12 13 12 12 11 10 8 8 9 9 9 8 8 8 8 7 7 7 7 6 6 6 6 6 6 6 6 6 6 6 6
12 12 13 14 15 14 15 16 14 12 13 12 11 11 12 11 10 10 10 8 7 9 9 8 8 8 8 7 7 7 6 6 6 6 5 5 6 6 5 5 5 5 5 6
12 12 12 14 13 12 13 14 13 14 12 15 14 14 12 11 11 10 10 9 8 8 8 8 8 8 8 7 7 6 6 6 6 5 5 5 5 4 4 4 5 5 6 6
11 10 10 12 13 13 13 13 12 14 12 10 11 12 13 12 12 11 10 9 8 9 9 9 9 8 8 7 7 6 6 6 5 5 4 4 4 4 4 5 5 5 5 5
10 9 9 11 12 12 12 12 12 11 10 10 11 12 11 12 12 11 10 8 8 9 9 9 8 8 8 7 7 6 6 5 5 4 4 4 4 4 4 4 4 4 4 4
11 8 10 11 11 9 11 12 11 12 9 9 11 10 10 10 11 11 9 9 8 8 9 9 8 8 8 7 7 6 5 5 4 4 4 4 4 4 4 4 4 4 4 4
8 9 9 11 12 11 11 11 11 11 11 12 12 11 10 11 11 11 10 8 8 7 8 8 8 8 7 6 6 5 5 5 4 4 4 4 4 4 3 3 3 3 3 3
4 7 8 9 10 10 11 11 11 12 11 11 12 11 11 12 12 10 9 8 8 7 8 9 9 8 7 7 6 6 5 4 4 4 4 4 4 4 3 3 3 3 3 3
2 5 6 10 9 9 8 9 10 11 10 11 10 11 9 10 10 10 9 8 8 8 8 9 9 8 7 7 6 5 5 4 4 4 4 3 3 3 3 3 3 3 3 2
3 4 5 6 8 6 11 12 12 12 12 11 11 10 10 11 11 11 10 9 8 8 9 9 9 8 8 7 6 5 5 4 4 4 3 3 3 3 3 3 3 2 2 2
4 4 4 4 7 10 11 11 10 9 12 10 10 9 11 12 11 10 10 9 10 11 11 11 10 9 7 6 6 6 5 4 4 3 3 3 2 3 3 2 2 2 2 1
6 5 6 2 6 6 11 11 11 10 10 12 11 10 9 9 8 8 10 10 9 11 11 10 10 8 7 6 6 6 5 4 3 3 3 2 2 2 2 2 1 1 1 0
3 4 4 6 3 6 9 10 12 10 11 12 12 11 10 9 11 15 10 9 10 11 11 11 10 9 8 6 6 5 4 3 3 3 2 2 2 2 2 1 1 1 0 0
5 4 5 4 4 7 8 9 10 12 16 15 13 12 11 12 13 12 10 9 10 10 10 10 9 8 6 6 5 4 4 3 3 2 2 2 1 1 1 1 0 -0 -0 -0
5 5 7 7 7 8 9 12 15 16 14 13 14 13 12 11 12 11 9 9 9 10 10 9 9 7 6 5 5 4 4 3 2 2 2 1 1 1 1 0 -0 -1 -1 -1
3 0 3 5 7 7 12 12 12 13 13 13 14 14 11 10 11 9 8 8 8 9 9 9 8 6 5 5 4 4 4 3 2 2 2 1 1 1 0 -0 -1 -1 -1 -2
-0 0 -0 -0 3 8 10 13 14 14 13 12 14 14 12 10 9 10 7 7 9 9 8 8 7 6 6 5 3 3 3 3 2 2 2 1 1 0 -0 -1 -1 -1 -1 -2
-0 -1 -1 -1 4 2 3 10 14 13 13 13 13 11 10 11 11 9 8 8 9 8 8 7 7 7 6 4 3 3 3 3 2 2 2 1 1 0 -0 -1 -2 -2 -2 -3
Height
1483 1489 1491 1485 1484 1484 1486 1488 1499 1505 1504 1512 1521 1529 1535 1537 1540 1541 1543 1544 1545 1545 1546 1548 1548 1548 1547 1547 1548 1546 1546 1546 1548 1548 1549 1549 1550 1549 1550 1550 1549 1548 1548 1546
1486 1488 1482 1480 1481 1481 1484 1492 1503 1507 1508 1513 1527 1537 1539 1539 1540 1540 1540 1543 1544 1545 1547 1549 1549 1548 1547 1548 1549 1548 1547 1548 1549 1549 1547 1549 1550 1549 1550 1548 1548 1546 1546 1545
1487 1481 1476 1479 1480 1483 1484 1486 1496 1499 1512 1518 1523 1540 1541 1540 1541 1542 1544 1543 1545 1545 1545 1548 1548 1549 1549 1549 1550 1550 1549 1549 1549 1548 1547 1549 1550 1550 1550 1548 1547 1546 1546 1544
1481 1474 1476 1478 1478 1478 1485 1475 1483 1491 1503 1531 1518 1546 1537 1536 1538 1540 1541 1542 1544 1544 1546 1547 1549 1549 1550 1550 1551 1550 1549 1549 1549 1550 1550 1549 1548 1547 1547 1547 1547 1546 1545 1543
1476 1471 1475 1478 1468 1473 1475 1475 1484 1490 1501 1509 1520 1532 1528 1530 1536 1534 1536 1540 1542 1543 1544 1545 1546 1548 1549 1550 1551 1551 1551 1550 1551 1551 1550 1548 1547 1548 1548 1548 1548 1546 1545 1543
1470 1465 1465 1465 1464 1467 1475 1482 1494 1506 1518 1527 1500 1516 1528 1517 1511 1521 1530 1534 1538 1541 1542 1544 1547 1547 1549 1550 1551 1551 1551 1551 1551 1551 1550 1548 1548 1548 1548 1547 1546 1545 1544 1542
1468 1464 1459 1458 1465 1466 1469 1487 1524 1528 1534 1512 1499 1515 1482 1497 1501 1505 1515 1526 1533 1536 1538 1541 1545 1546 1547 1549 1550 1551 1550 1550 1550 1550 1550 1548 1548 1549 1548 1546 1546 1545 1543 1541
1474 1475 1458 1452 1455 1463 1464 1476 1498 1495 1506 1508 1500 1505 1488 1484 1494 1506 1514 1520 1528 1531 1535 1540 1543 1544 1545 1547 1549 1549 1549 1549 1550 1550 1549 1549 1549 1548 1547 1546 1545 1544 1543 1540
1471 1463 1449 1447 1448 1453 1465 1474 1457 1485 1489 1499 1491 1488 1482 1480 1490 1500 1510 1516 1521 1527 1532 1537 1539 1542 1543 1545 1547 1547 1548 1549 1549 1549 1549 1550 1550 1548 1547 1547 1546 1545 1543 1540
1454 1463 1449 1446 1447 1451 1451 1453 1477 1483 1493 1498 1489 1488 1481 1483 1489 1493 1500 1507 1516 1522 1528 1533 1536 1539 1541 1545 1545 1545 1546 1547 1548 1547 1549 1550 1549 1549 1548 1547 1546 1543 1541 1538
1450 1455 1454 1446 1448 1452 1456 1458 1462 1463 1476 1468 1478 1462 1456 1466 1472 1481 1489 1496 1505 1514 1521 1528 1532 1536 1540 1543 1543 1544 1545 1546 1547 1547 1549 1550 1550 1549 1549 1547 1544 1542 1540 1537
1446 1453 1459 1450 1445 1444 1447 1451 1456 1462 1470 1476 1473 1466 1450 1449 1458 1466 1477 1488 1500 1508 1515 1522 1527 1531 1536 1539 1540 1542 1544 1546 1547 1547 1548 1549 1549 1549 1549 1546 1543 1541 1539 1537
1440 1452 1461 1453 1450 1447 1449 1448 1449 1455 1461 1467 1471 1462 1451 1458 1464 1470 1477 1486 1494 1503 1511 1517 1523 1528 1532 1536 1538 1540 1542 1544 1546 1547 1548 1548 1547 1547 1546 1545 1543 1541 1540 1536
1437 1441 1440 1443 1440 1446 1449 1447 1448 1451 1468 1464 1453 1461 1459 1459 1461 1469 1476 1483 1489 1498 1504 1510 1518 1524 1529 1533 1536 1537 1540 1542 1543 1546 1546 1546 1545 1544 1545 1545 1543 1541 1538 1535
1438 1439 1437 1431 1429 1435 1438 1440 1444 1448 1446 1451 1444 1451 1450 1448 1452 1455 1466 1478 1487 1494 1499 1505 1511 1519 1525 1530 1533 1535 1538 1539 1541 1543 1545 1545 1544 1543 1544 1544 1542 1540 1537 1534
1449 1439 1434 1433 1428 1428 1433 1435 1437 1434 1440 1439 1440 1444 1438 1441 1455 1460 1464 1470 1477 1484 1492 1500 1508 1515 1520 1524 1528 1532 1535 1537 1539 1540 1542 1544 1543 1543 1543 1542 1541 1538 1536 1533
1464 1447 1441 1428 1428 1432 1441 1428 1427 1430 1430 1431 1439 1433 1437 1444 1447 1450 1457 1462 1467 1475 1484 1492 1501 1508 1515 1520 1524 1528 1532 1534 1535 1537 1539 1542 1542 1542 1541 1540 1539 1537 1534 1532
1456 1453 1449 1440 1434 1452 1405 1407 1411 1417 1415 1415 1419 1423 1426 1429 1431 1436 1444 1451 1459 1469 1478 1488 1496 1504 1511 1518 1522 1526 1528 1530 1532 1535 1538 1540 1540 1540 1539 1538 1537 1535 1533 1530
1442 1453 1451 1447 1431 1414 1407 1405 1408 1416 1404 1408 1413 1418 1420 1423 1432 1439 1445 1450 1452 1459 1469 1480 1489 1498 1507 1513 1518 1522 1525 1527 1530 1533 1536 1537 1538 1538 1537 1536 1535 1533 1531 1530
1425 1433 1438 1450 1435 1432 1390 1399 1400 1404 1403 1394 1401 1406 1412 1422 1432 1430 1434 1441 1451 1459 1467 1476 1486 1495 1503 1509 1514 1518 1521 1524 1528 1531 1533 1534 1536 1536 1535 1534 1533 1532 1531 1529
1423 1425 1427 1422 1437 1408 1390 1387 1395 1417 1379 1379 1385 1395 1402 1405 1406 1415 1425 1437 1444 1450 1462 1472 1481 1489 1497 1504 1509 1513 1517 1521 1525 1528 1530 1532 1533 1533 1533 1532 1532 1531 1531 1529
1411 1413 1415 1421 1426 1406 1382 1388 1393 1378 1377 1379 1383 1387 1391 1394 1400 1407 1414 1426 1434 1444 1455 1466 1476 1485 1494 1500 1505 1509 1514 1518 1522 1524 1527 1529 1530 1531 1531 1530 1530 1530 1529 1527
1409 1408 1395 1391 1386 1376 1373 1375 1375 1374 1374 1376 1377 1379 1383 1389 1392 1399 1410 1418 1426 1436 1448 1460 1470 1481 1489 1496 1501 1505 1510 1515 1518 1521 1524 1525 1527 1528 1529 1529 1529 1528 1527 1525
1410 1408 1403 1394 1374 1371 1371 1373 1371 1373 1374 1376 1377 1378 1381 1384 1389 1395 1403 1412 1422 1432 1442 1454 1466 1476 1482 1491 1497 1504 1507 1511 1515 1518 1520 1522 1524 1525 1526 1527 1527 1526 1524 1522
1421 1416 1413 1407 1385 1371 1367 1366 1369 1370 1372 1373 1376 1375 1377 1381 1386 1388 1398 1407 1415 1425 1438 1449 1459 1469 1477 1486 1493 1499 1503 1508 1512 1515 1518 1520 1521 1523 1524 1525 1525 1523 1521 1520
1412 1408 1415 1398 1383 1387 1380 1373 1368 1367 1366 1368 1370 1371 1373 1375 1380 1387 1394 1401 1410 1421 1433 1445 1456 1463 1473 1481 1489 1494 1500 1504 1508 1511 1514 1517 1519 1520 1522 1523 1522 1521 1519 1518
Wind_Speed
4 4 8 8 4 2 6 12 6 2 3 6 5 14 9 18 18 18 21 23 23 23 20 18 18 17 18 18 17 14 15 13 9 10 10 8 6 8 6 7 7 6 6 7
3 7 5 4 5 4 6 10 3 6 4 7 9 7 3 10 12 21 26 26 26 24 21 18 17 16 16 17 17 17 18 17 15 14 13 11 11 11 11 10 9 9 8 8
6 5 6 9 5 7 7 17 8 9 8 10 15 4 3 5 7 13 16 22 23 24 23 19 17 15 14 15 14 15 16 16 15 13 11 11 11 11 10 10 10 11 12 12
6 7 4 4 11 8 12 7 12 20 8 6 5 5 8 10 7 9 15 22 24 23 21 19 17 16 14 14 12 12 13 13 14 13 11 10 11 12 14 13 13 13 14 15
7 6 7 9 11 9 6 8 11 6 6 8 6 3 5 13 9 14 18 24 27 26 23 21 18 15 15 14 12 12 11 12 13 12 11 11 12 13 12 10 10 11 13 14
7 3 6 9 6 6 8 12 13 8 4 3 16 8 6 15 25 18 22 25 30 28 24 21 18 17 16 15 13 12 11 14 13 12 13 13 13 13 11 12 14 15 16 17
3 5 3 4 6 4 14 13 3 3 4 8 10 6 11 23 18 28 28 28 33 30 26 23 21 19 17 14 13 12 11 13 12 11 11 12 13 12 13 15 15 16 18 19
7 4 8 5 7 9 16 12 7 14 9 2 6 8 6 17 26 30 33 34 36 32 29 25 21 18 16 14 12 11 10 10 10 10 12 12 13 14 15 16 17 17 18 19
5 6 2 4 4 9 6 11 11 6 1 3 5 4 4 6 16 30 33 32 37 38 33 28 23 19 16 14 12 11 10 9 9 9 10 11 13 13 14 15 15 16 17 19
4 3 3 3 4 1 11 13 6 2 10 7 5 7 7 16 21 23 27 34 36 42 37 32 26 21 17 14 12 10 9 7 8 9 9 9 12 13 13 14 15 18 19 20
7 3 3 4 6 8 3 7 2 5 4 13 6 9 12 21 24 26 33 41 43 46 41 36 29 23 18 15 11 9 7 6 6 6 6 7 10 11 12 13 16 18 19 20
6 5 5 8 1 2 4 7 5 9 12 1 2 6 4 24 26 39 40 42 44 48 43 38 31 26 21 16 12 8 6 4 4 4 4 6 8 9 11 14 16 18 20 21
8 4 2 4 3 2 4 4 4 3 3 7 5 3 2 11 16 26 32 38 41 47 44 39 34 29 24 19 14 10 6 4 3 2 2 4 6 9 11 14 15 17 19 21
5 5 8 12 5 6 5 4 4 4 3 3 8 5 5 11 16 23 31 36 40 43 46 42 37 32 27 22 17 13 8 5 3 1 1 4 6 9 11 13 14 17 19 21
1 8 6 5 9 6 7 8 10 9 7 8 6 9 13 18 21 34 35 37 38 41 45 45 41 36 31 26 21 15 9 7 5 2 1 4 5 7 9 11 14 17 19 21
9 5 7 7 8 9 6 9 12 16 7 9 3 6 8 23 17 25 34 40 42 42 47 47 42 39 35 29 23 17 12 10 6 3 1 2 4 5 7 10 13 15 18 20
6 4 1 9 4 6 2 14 13 5 8 8 12 7 9 10 17 31 36 44 45 47 50 50 46 41 36 29 24 20 14 10 8 3 1 0 2 3 6 10 12 15 18 19
10 5 3 2 4 3 12 11 15 16 14 18 7 10 15 24 39 44 45 46 47 49 53 50 46 42 36 30 25 18 13 11 7 5 3 3 1 3 6 9 12 14 17 19
20 7 4 4 7 5 2 6 9 8 19 9 12 8 17 29 23 16 34 45 55 57 54 50 47 43 37 32 26 19 15 13 10 8 6 5 1 2 6 8 11 14 16 17
15 18 9 1 7 11 10 5 7 6 16 11 16 16 13 22 13 7 43 50 48 53 52 51 47 42 38 33 27 21 17 15 13 10 8 6 2 2 5 8 10 13 15 16
5 6 16 14 5 9 5 10 19 8 11 15 32 28 29 18 18 41 47 45 52 56 53 50 47 45 41 35 28 21 19 18 14 11 9 6 2 2 5 7 10 11 13 14
5 8 6 4 8 17 9 7 16 15 12 12 21 31 37 40 38 37 50 53 56 55 53 50 49 46 41 34 27 23 21 18 15 12 10 7 3 1 4 6 8 10 12 14
9 7 6 11 10 3 21 18 27 35 16 20 16 26 42 35 39 41 51 56 58 57 54 52 51 47 40 33 26 22 22 19 16 14 11 7 3 1 3 5 7 9 12 14
6 18 4 5 6 7 12 25 19 30 25 13 14 25 37 40 40 45 52 56 57 56 55 55 52 47 40 31 25 20 20 19 16 14 12 7 4 1 2 5 7 9 11 14
11 13 10 13 22 8 19 26 25 21 29 22 22 24 36 44 43 50 51 55 58 57 55 56 52 45 37 32 27 23 21 20 18 15 12 9 5 2 1 4 6 9 12 15
22 20 10 9 22 20 28 34 34 33 29 24 25 27 38 45 49 50 53 57 58 56 57 55 49 42 37 33 29 25 23 20 18 16 13 10 6 3 1 3 6 9 11 14
Wind_Direction
193 146 213 212 177 20 213 164 133 69 96 97 113 135 141 145 142 140 135 129 121 113 110 107 104 103 102 98 98 110 116 126 143 148 147 132 128 96 90 72 58 46 26 7
46 233 197 199 211 184 136 152 129 67 58 82 118 81 111 153 169 164 155 146 137 130 125 117 109 104 101 100 96 100 102 112 116 121 115 111 106 94 78 67 53 40 27 14
172 223 187 179 214 176 179 185 177 145 100 55 114 29 169 208 182 172 169 155 148 142 133 124 118 110 100 94 90 95 97 96 93 89 93 99 95 91 80 56 40 28 19 15
225 225 178 212 206 174 202 186 166 139 136 167 218 207 206 193 197 194 181 170 160 148 139 132 125 116 108 96 88 83 83 87 89 94 99 96 82 65 54 45 35 26 19 15
236 189 174 207 214 191 196 145 140 151 93 124 203 115 270 166 197 207 193 183 170 158 148 137 128 116 106 98 96 93 94 92 87 84 80 76 71 66 58 48 37 30 23 18
234 229 182 202 181 199 132 94 53 51 34 313 198 180 207 186 202 191 192 186 174 163 151 141 135 127 119 106 97 94 97 94 86 80 76 69 65 60 51 45 36 31 24 19
257 229 231 165 123 124 129 121 101 166 206 222 175 192 217 201 194 190 185 179 178 168 162 157 151 143 130 118 102 98 95 94 85 77 72 65 59 52 45 38 31 23 19 16
179 256 179 188 176 171 169 155 155 196 198 169 106 238 255 182 195 186 183 180 180 175 172 168 158 149 138 124 107 94 92 90 82 70 63 58 50 43 39 33 27 22 18 14
190 248 237 171 142 159 205 189 194 95 100 148 204 226 298 186 166 169 178 176 181 181 178 172 164 155 143 130 113 92 90 90 81 67 56 50 39 35 32 28 21 19 14 13
227 246 232 148 127 99 186 169 161 202 176 199 242 227 200 155 169 177 176 179 182 185 181 176 169 161 151 143 123 99 86 82 74 61 49 39 29 25 25 21 20 17 15 12
193 189 297 148 189 172 141 176 201 152 178 215 215 241 170 177 175 177 184 183 182 185 183 179 172 167 160 153 135 113 97 85 80 70 49 33 24 23 21 18 17 15 12 12
194 161 201 217 205 173 162 186 169 195 214 233 191 254 208 174 179 182 182 180 182 185 182 179 174 171 171 164 151 136 121 102 88 76 43 30 22 23 19 20 19 17 15 14
181 219 107 347 6 96 198 202 163 107 80 206 173 240 44 171 178 182 175 176 177 182 183 180 177 178 177 173 167 160 144 135 123 85 36 28 25 24 22 21 20 20 19 17
237 162 189 217 200 142 165 184 161 148 163 166 228 169 158 165 173 174 177 177 176 180 184 182 180 182 182 179 176 173 163 160 155 151 27 21 32 30 24 22 21 22 21 19
36 222 194 232 184 174 174 178 180 197 205 210 184 181 196 185 181 185 175 169 173 181 185 185 184 184 186 181 180 178 176 179 184 199 354 15 36 32 25 22 24 23 21 20
340 281 183 213 203 181 181 204 196 215 213 254 173 233 200 195 168 165 175 172 178 181 186 189 187 187 186 185 187 184 186 189 191 200 286 11 39 32 27 28 26 23 23 21
290 311 136 231 187 125 292 212 209 198 206 187 220 208 155 168 178 180 180 181 181 183 186 190 190 189 189 190 191 186 187 193 195 197 222 276 59 35 34 31 25 24 24 22
251 306 296 214 89 175 248 166 200 207 219 217 208 179 180 180 191 193 190 183 181 183 188 192 191 191 193 190 187 186 193 198 198 204 211 196 141 35 33 27 25 25 24 21
214 211 262 165 204 253 214 222 171 176 250 219 208 197 190 192 186 186 189 190 190 192 196 194 194 194 189 188 189 193 195 199 200 204 201 191 167 38 31 25 25 24 21 18
205 206 198 144 189 220 250 194 155 82 268 218 203 198 174 156 185 189 195 195 190 195 196 194 194 191 188 190 192 195 196 198 197 200 193 188 178 29 23 23 21 19 15 13
166 190 204 218 244 273 231 171 146 157 262 200 194 194 175 185 192 204 195 187 194 195 194 195 193 191 193 191 192 192 194 195 196 194 188 184 175 16 15 14 11 10 8 9
221 177 192 191 204 252 192 127 170 227 274 264 231 203 194 200 195 197 185 185 191 192 192 193 189 190 189 191 189 189 193 193 193 187 184 183 180 12 7 4 2 359 1 3
243 232 245 191 214 262 177 193 212 230 245 234 226 212 205 191 188 181 176 186 190 192 191 190 190 186 186 187 190 190 191 190 187 184 184 183 180 336 353 354 351 354 356 359
302 20 313 321 236 216 216 228 229 229 242 256 257 232 203 194 186 176 181 182 187 188 188 186 186 184 181 184 186 194 192 187 187 184 182 183 184 240 320 343 347 352 354 358
258 322 323 299 290 287 240 229 240 246 249 257 249 238 212 200 186 183 179 182 186 186 186 186 185 185 183 183 182 187 191 188 185 182 183 184 188 202 286 335 344 350 353 358
251 257 253 257 298 309 301 292 245 244 248 244 236 221 209 206 191 185 183 185 185 184 184 182 185 183 182 183 184 186 189 188 187 183 183 185 187 190 223 338 347 351 353 350